Regional Weather Roundup
Issued by NWS

Home | Current Version | Previous Version | Text Only | Print | Product List | Glossary On
Versions: 1 2 3 4 5 6 7 8 9 10 11 12 13 14 15 16 17 18 19 20 21 22 23 24 25 26 27 28 29 30 31 32 33 34 35 36 37 38 39 40 41 42 43 44 45 46 47 48 49 50
000
ASUS43 KMKX 291611
RWRWI

WISCONSIN REGIONAL WEATHER ROUNDUP
NATIONAL WEATHER SERVICE MILWAUKEE/SULLIVAN WI
1100 AM CDT FRI JUL 29 2016

NOTE: "FAIR" INDICATES FEW OR NO CLOUDS BELOW 12,000 FEET WITH NO
SIGNIFICANT WEATHER AND/OR OBSTRUCTIONS TO VISIBILITY.

WIZ001-002-006>008-014>016-023>028-291700-
NORTHWEST WISCONSIN

CITY           SKY/WX    TMP DP  RH WIND       PRES   REMARKS
SUPERIOR ARPT  SUNNY     69  56  64 E8        30.11S
ASHLAND        SUNNY     70  56  61 NE10      30.11F
HAYWARD        MOSUNNY   69  55  60 NE10      30.10F
SIREN          NOT AVBL
CUMBERLAND     SUNNY     66  50  55 NE12      30.10S
RICE LAKE      SUNNY     68  52  57 N6        30.10S
CHETEK         SUNNY     69  52  55 MISG      30.09S
LADYSMITH      SUNNY     70  54  56 NE9       30.11S
EAU CLAIRE     SUNNY     72  56  57 NE8       30.06S
MENOMONIE      CLOUDY    71  52  50 N3        30.07S
NEW RICHMOND   SUNNY     70  48  45 NE5       30.09S
OSCEOLA        SUNNY     70  51  51 NE7       30.12S
$$

WIZ003>005-009-010-017-018-291700-
NORTH CENTRAL WISCONSIN

CITY           SKY/WX    TMP DP  RH WIND       PRES   REMARKS
MANITOWISH WTR SUNNY     68  56  66 E5        30.10S
ARBOR VITAE    SUNNY     72  58  60 NE7       30.10S
WOODRUFF       SUNNY     72  58  60 NE7       30.10S
RHINELANDER    MOSUNNY   69  53  56 CALM      30.10R
EAGLE RIVER    SUNNY     70  53  55 E6        30.10R
LAND O LAKES   MOSUNNY   70  54  58 E7        30.11S
PHILLIPS       MOSUNNY   69  55  61 E7        30.09S
TOMAHAWK       MOSUNNY   69  55  62 E3        30.10R
MEDFORD        MOSUNNY   69  56  64 NE5       30.08S
MERRILL        SUNNY     71  58  64 NE5       30.08S
$$

WIZ029-030-035-036-043>047-291700-
CENTRAL WISCONSIN

CITY           SKY/WX    TMP DP  RH WIND       PRES   REMARKS
WAUSAU         SUNNY     71  59  65 E10       30.05S
MOSINEE        MOSUNNY   70  63  78 NE8       30.07S
MARSHFIELD     MOSUNNY   72  61  68 E10       30.05F
STEVENS POINT  CLOUDY    66  60  81 E9        30.06S
WAUPACA        CLOUDY    67  63  87 N5        30.05S
WAUTOMA        CLOUDY    65  62  90 NE8       30.04S
WISC RAPIDS    CLOUDY    71  60  68 E9        30.05F
CAMP DOUGLAS   CLOUDY    66  61  82 NE6       30.03S
$$

WIZ011>013-019>022-031-037>040-048>050-291700-
NORTHEAST WISCONSIN

CITY           SKY/WX    TMP DP  RH WIND       PRES   REMARKS
ANTIGO         SUNNY     71  59  65 E9        30.08S
SHAWANO        CLOUDY    72  63  74 NE6       30.06S
OCONTO         CLOUDY    71  69  94 NE7       30.04F
STURGEON BAY   PTSUNNY   73  59  61 E9        30.06S
GREEN BAY      CLOUDY    68  66  93 NE12      30.04S
MANITOWOC      CLOUDY    70  63  78 NE8       30.04R
APPLETON       CLOUDY    66  63  88 NE10      30.03R
CLINTONVILLE   CLOUDY    66  59  77 NE3       30.06R
OSHKOSH        CLOUDY    69  63  81 NE7       30.03R
$$

WIZ032>034-041-042-053>061-291700-
SOUTHWEST WISCONSIN

CITY           SKY/WX    TMP DP  RH WIND       PRES   REMARKS
LA CROSSE      MOSUNNY   72  61  68 VRB7      30.02S
SPARTA         CLOUDY    71  62  73 NE8       30.03F
VIROQUA        CLOUDY    64  61  90 NE5       30.04R
BOSCOBEL       CLOUDY    67  62  84 VRB5      30.01R
PRAIRIE DU CHI CLOUDY    65  61  85 NE7       30.01R
PLATTEVILLE    CLOUDY    67  66  96 NE9       30.00R
$$

WIZ056-057-062-063-064-067-068-291700-
SOUTH CENTRAL WISCONSIN

CITY           SKY/WX    TMP DP  RH WIND       PRES   REMARKS
REEDSBURG      CLOUDY    63  63  99 CALM      30.02S
BARABOO/DELLS  CLOUDY    64  62  91 NE5       30.02S
LONE ROCK      CLOUDY    66  61  84 NE8       30.01S
MINERAL POINT  CLOUDY    68  64  88 NE7       30.01R FOG
MADISON        LGT RAIN  69  66  90 NE10      29.99S
MIDDLETON      CLOUDY    68  66  93 NE6       30.00S
WATERTOWN      CLOUDY    71  68  90 E8        29.99R
MONROE         CLOUDY    68  64  88 NE9       29.99R
JANESVILLE     CLOUDY    73  68  83 E9        29.96S
$$

WIZ051-052-058>065-066-070>072-291700-
SOUTHEAST WISCONSIN

CITY           SKY/WX    TMP DP  RH WIND       PRES   REMARKS
MILWAUKEE      CLOUDY    73  66  78 E10       29.99R
WAUKESHA       CLOUDY    68  64  88 E9        30.01R
MILWAUKEE/TIMM CLOUDY    66  63  88 E6        30.01R
RACINE         CLOUDY    73  65  75 E8        30.00R
BURLINGTON     CLOUDY    73  67  81 NE7       29.98S
KENOSHA        CLOUDY    74  66  76 E10       29.98R
FOND DU LAC    LGT RAIN  68  65  90 NE8       30.03R
SHEBOYGAN      CLOUDY    70  63  78 NE13      30.02R
WEST BEND      CLOUDY    70  63  78 E12G17    30.01R
JUNEAU         CLOUDY    71  64  79 NE9       30.02R
$$

LSZ147-162-291700-
LAKE SUPERIOR

STATION/POSITION TIME  TEMP    WIND        PRES    WAVE
                       AIR SEA DIR/SP/G            HT/PER
                 (UTC) (F)     (DEG/KT/KT) (MB)    (FT/S)
W MID LAKE BUOY  1550   62 61   50/  4/  6 1019.5S   0
DEVILS ISLAND    1600   64      70/  6/  7 1020.0F
SAXON HARBOR     1540   65      20/  5/  7 1019.3F
$$

LMZ867-665-643>646-291700-
LAKE MICHIGAN

STATION/POSITION TIME  TEMP    WIND        PRES    WAVE
                       AIR SEA DIR/SP/G            HT/PER
                 (UTC) (F)     (DEG/KT/KT) (MB)    (FT/S)
CHAMBERS ISLAND  1500   71      20/  9/ 11 1017.6R
N MID LAKE BUOY  1550   68 69   90/ 12/ 14 1017.4R   2/ 4
NORTHPORT PIER   1500   71     100/  9/ 11 1017.6S
SISTER BAY       1506   77      80/  7/ 11   N/A
ALGOMA LAKESHORE 1543           60/ 10/ 12   N/A
KEWAUNEE LAKESHO 1500   65      20/  2/  5 1016.7R
SHEBOYGAN LAKESH 1600   65      10/  9/ 10 1016.9R
PORT WASHINGTON  1540   69      40/  6/ 10 1016.9R
ATWATER BUOY     1600   66 63   70/  4/  8 1017.4R
MILWAUKEE LAKESH 1510   67      70/ 11/ 11   N/A
S MID LAKE BUOY  1550   70 74   80/ 16/ 17 1013.9R   4/ 5
KENOSHA   LAKESH 1600   72      80/  8/  9 1014.6R
$$

TC  - TEMPERATURE IN CELSIUS
VSB - VISIBILITY IN STATUTE MILES
WCI - WIND CHILL INDEX
HX  - HEAT INDEX





USA.gov is the U.S. government's official web portal to all federal, state and local government web resources and services.